Weather History for Riverside March, CA

Change the Weather History Date:

Friday, October 11, 2013

  Actual Average Record
Temperature  
Mean Temperature 61 °F -  
Max Temperature 73 °F 81 °F 92 °F (2010)
Min Temperature 44 °F 52 °F 41 °F (2008)
Degree Days  
Heating Degree Days 4    
Growing Degree Days 11 (Base 50)    
Moisture  
Dew Point 47 °F    
Average Humidity 71    
Maximum Humidity 100    
Minimum Humidity 29    
Precipitation  
Precipitation 0.00 in - - ()
Sea Level Pressure  
Sea Level Pressure 29.99 in    
Wind  
Wind Speed 2 mph (WNW)    
Max Wind Speed 15 mph    
Max Gust Speed -    
Visibility 10 miles    
Events      
Averages and records for this station are not official NWS values.
T = Trace of Precipitation, MM = Missing Value Source: NWS Daily Summary

Daily Weather History Graph

Daily Weather History Graph

Search for Another Location

Airport:

Trip Planner

Search our weather history database for the weather conditions in past years. The results will help you decide how hot, cold, wet, or windy it might be!

Date:

Astronomy

Oct. 11, 2013 Rise Set
Actual Time 6:51 AM PDT 6:19 PM PDT
Civil Twilight 6:26 AM PDT 6:44 PM PDT
Nautical Twilight 5:57 AM PDT 7:13 PM PDT
Astronomical Twilight 5:28 AM PDT 7:42 PM PDT
Moon 1:28 PM PDT (10/11) No Moon Set
Length of Visible Light 12h 18m
Length of Day
11h 28m
Waxing Crescent, 48% of the Moon is Illuminated
Oct 11
Waxing Crescent
Oct 11
First Quarter
Oct 18
Full
Oct 26
Last Quarter
Nov 3
New

Hourly Weather History & Observations

Time (PDT) Temp. Dew Point Humidity Pressure Visibility Wind Dir Wind Speed Gust Speed Precip Events Conditions
12:58 AM 47.8 °F 47.8 °F 100% 30.01 in 10.0 mi Calm Calm - N/A   Clear
1:58 AM 48.0 °F 48.0 °F 100% 30.01 in 10.0 mi North 1.2 mph - N/A   Clear
2:58 AM 46.4 °F 46.4 °F 100% 30.00 in 10.0 mi Calm Calm - N/A   Clear
3:58 AM 46.8 °F 46.8 °F 100% 30.00 in 10.0 mi West 2.3 mph - N/A   Clear
4:58 AM 45.0 °F 45.0 °F 100% 30.01 in 10.0 mi SSE 2.3 mph - N/A   Clear
5:58 AM 45.3 °F 45.3 °F 100% 30.02 in 9.0 mi Calm Calm - N/A   Clear
6:03 AM 44.6 °F 44.6 °F 100% 30.02 in 8.0 mi Calm Calm - N/A   Clear
6:58 AM 44.1 °F 44.1 °F 100% 30.03 in 10.0 mi Calm Calm - N/A   Clear
7:58 AM 50.0 °F 44.6 °F 82% 30.05 in 10.0 mi Calm Calm - N/A   Clear
8:58 AM 55.4 °F 48.2 °F 77% 30.05 in 10.0 mi Calm Calm - N/A   Clear
9:58 AM 60.8 °F 48.2 °F 63% 30.05 in 10.0 mi Calm Calm - N/A   Clear
10:58 AM 66.2 °F 46.4 °F 49% 30.04 in 10.0 mi Calm Calm - N/A   Clear
11:58 AM 71.6 °F 46.4 °F 41% 30.01 in 10.0 mi Calm Calm - N/A   Clear
12:58 PM 73.4 °F 48.2 °F 41% 29.99 in 10.0 mi Variable 3.5 mph - N/A   Partly Cloudy
1:58 PM 75.2 °F 44.6 °F 34% 29.96 in 10.0 mi WNW 5.8 mph - N/A   Partly Cloudy
2:58 PM 78.8 °F 44.6 °F 30% 29.95 in 10.0 mi Variable 5.8 mph - N/A   Partly Cloudy
3:58 PM 77.0 °F 42.8 °F 29% 29.94 in 10.0 mi Variable 5.8 mph - N/A   Partly Cloudy
4:58 PM 75.2 °F 42.8 °F 31% 29.92 in 10.0 mi NW 9.2 mph - N/A   Clear
5:58 PM 69.8 °F 46.0 °F 43% 29.93 in 10.0 mi WNW 15.0 mph - N/A   Clear
6:58 PM 64.8 °F 47.5 °F 53% 29.95 in 10.0 mi WNW 9.2 mph - N/A   Clear
7:58 PM 61.2 °F 51.1 °F 69% 29.97 in 10.0 mi NW 9.2 mph - N/A   Clear
8:58 PM 59.4 °F 50.7 °F 73% 29.98 in 10.0 mi NNW 4.6 mph - N/A   Clear
9:58 PM 57.2 °F 50.4 °F 78% 29.99 in 10.0 mi SSW 3.5 mph - N/A   Clear
10:58 PM 55.9 °F 50.9 °F 83% 29.99 in 10.0 mi Calm Calm - N/A   Clear
11:58 PM 52.9 °F 50.5 °F 92% 29.99 in 10.0 mi WNW 3.5 mph - N/A   Clear